| time (UTC) | temp F | wind direction | speed MPH | gust MPH | rain 1hr in | rain 24hr in | rain mn in | humidity % | barometer mb |
| 20260901231406 | 55 | 57 | 0.0 | 0.0 | 0.00 | 0.00 | 0.00 | 94 | 1019.9 |
| 20260901230906 | 55 | 57 | 0.0 | 0.0 | 0.00 | 0.00 | 0.00 | 94 | 1019.9 |
| 20260901225406 | 55 | 57 | 0.0 | 0.0 | 0.00 | 0.00 | 0.00 | 94 | 1020.1 |
| 20260901224906 | 55 | 57 | 0.0 | 0.0 | 0.00 | 0.00 | 0.00 | 93 | 1020.1 |
| 20260901224406 | 55 | 57 | 0.0 | 0.0 | 0.00 | 0.00 | 0.00 | 93 | 1020.1 |
| 20260901223906 | 55 | 57 | 0.0 | 0.0 | 0.00 | 0.00 | 0.00 | 94 | 1020.0 |
| 20260901223406 | 55 | 57 | 0.0 | 0.0 | 0.00 | 0.00 | 0.00 | 93 | 1020.1 |
| 20260901221906 | 56 | 57 | 0.0 | 0.0 | 0.00 | 0.00 | 0.00 | 93 | 1020.1 |
| 20260901221406 | 56 | 57 | 0.0 | 0.0 | 0.00 | 0.00 | 0.00 | 92 | 1020.0 |
| 20260901220906 | 56 | 53 | 0.0 | 0.0 | 0.00 | 0.00 | 0.00 | 92 | 1020.0 |
| 20260901220406 | 56 | 53 | 0.0 | 0.0 | 0.00 | 0.00 | 0.00 | 92 | 1020.0 |
| 20260901215906 | 56 | 53 | 0.0 | 0.0 | 0.00 | 0.00 | 0.00 | 91 | 1020.2 |
| 20260901215406 | 57 | 53 | 0.0 | 0.0 | 0.00 | 0.00 | 0.00 | 91 | 1020.2 |
| 20260901214906 | 57 | 53 | 0.0 | 0.0 | 0.00 | 0.00 | 0.00 | 91 | 1020.2 |
| 20260901214405 | 57 | 53 | 0.0 | 0.0 | 0.00 | 0.00 | 0.00 | 90 | 1020.2 |
| 20260901213906 | 57 | 53 | 0.0 | 0.0 | 0.00 | 0.00 | 0.00 | 90 | 1020.2 |
| 20260901213406 | 57 | 53 | 0.0 | 0.0 | 0.00 | 0.00 | 0.00 | 90 | 1020.3 |
| 20260901212906 | 58 | 53 | 0.0 | 0.0 | 0.00 | 0.00 | 0.00 | 90 | 1020.2 |
| 20260901212408 | 58 | 52 | 0.0 | 1.0 | 0.00 | 0.00 | 0.00 | 90 | 1020.2 |
| 20260901211906 | 58 | 49 | 0.0 | 0.0 | 0.00 | 0.00 | 0.00 | 89 | 1020.4 |
| 20260901210906 | 58 | 49 | 1.0 | 2.0 | 0.00 | 0.00 | 0.00 | 90 | 1020.3 |
| 20260901210406 | 58 | 9 | 0.0 | 0.0 | 0.00 | 0.00 | 0.00 | 90 | 1020.4 |
| 20260901205906 | 58 | 9 | 0.0 | 0.0 | 0.00 | 0.00 | 0.00 | 90 | 1020.4 |
| 20260901204906 | 59 | 341 | 0.0 | 0.0 | 0.00 | 0.00 | 0.00 | 89 | 1020.5 |
| 20260901204406 | 59 | 341 | 0.0 | 0.0 | 0.00 | 0.00 | 0.00 | 89 | 1020.4 |
| 20260901203906 | 59 | 341 | 0.0 | 0.0 | 0.00 | 0.00 | 0.00 | 89 | 1020.4 |
| 20260901203406 | 59 | 341 | 0.0 | 0.0 | 0.00 | 0.00 | 0.00 | 89 | 1020.3 |
| 20260901202905 | 59 | 341 | 0.0 | 0.0 | 0.00 | 0.00 | 0.00 | 88 | 1020.3 |
| 20260901202406 | 59 | 341 | 0.0 | 0.0 | 0.00 | 0.00 | 0.00 | 88 | 1020.4 |
| 20260901201906 | 59 | 341 | 0.0 | 0.0 | 0.00 | 0.00 | 0.00 | 88 | 1020.2 |
| 20260901201406 | 59 | 339 | 0.0 | 0.0 | 0.00 | 0.00 | 0.00 | 88 | 1020.1 |
| 20260901200906 | 59 | 339 | 0.0 | 0.0 | 0.00 | 0.00 | 0.00 | 87 | 1020.1 |
| 20260901200406 | 60 | 339 | 0.0 | 0.0 | 0.00 | 0.00 | 0.00 | 87 | 1020.1 |
| 20260901195906 | 60 | 339 | 0.0 | 0.0 | 0.00 | 0.00 | 0.00 | 86 | 1020.2 |
| 20260901194905 | 60 | 339 | 0.0 | 0.0 | 0.00 | 0.00 | 0.00 | 86 | 1020.2 |
| 20260901194406 | 60 | 339 | 0.0 | 0.0 | 0.00 | 0.00 | 0.00 | 85 | 1020.1 |
| 20260901193906 | 60 | 339 | 0.0 | 0.0 | 0.00 | 0.00 | 0.00 | 85 | 1020.1 |
| 20260901193406 | 60 | 339 | 0.0 | 0.0 | 0.00 | 0.00 | 0.00 | 85 | 1020.0 |
| 20260901192905 | 60 | 339 | 0.0 | 0.0 | 0.00 | 0.00 | 0.00 | 84 | 1019.9 |
| 20260901192405 | 60 | 339 | 0.0 | 0.0 | 0.00 | 0.00 | 0.00 | 82 | 1019.9 |
| 20260901191906 | 60 | 339 | 0.0 | 0.0 | 0.00 | 0.00 | 0.00 | 82 | 1019.9 |
| 20260901191406 | 61 | 339 | 0.0 | 0.0 | 0.00 | 0.00 | 0.00 | 81 | 1019.8 |
| 20260901190906 | 61 | 339 | 0.0 | 1.0 | 0.00 | 0.00 | 0.00 | 81 | 1019.7 |
| 20260901190405 | 61 | 336 | 0.0 | 2.0 | 0.00 | 0.00 | 0.00 | 81 | 1019.6 |
| 20260901185906 | 61 | 291 | 1.0 | 2.0 | 0.00 | 0.00 | 0.00 | 80 | 1019.7 |
| 20260901185405 | 61 | 291 | 0.0 | 0.0 | 0.00 | 0.00 | 0.00 | 79 | 1019.7 |
| 20260901184906 | 62 | 291 | 0.0 | 0.0 | 0.00 | 0.00 | 0.00 | 78 | 1019.8 |
| 20260901184406 | 62 | 291 | 0.0 | 0.0 | 0.00 | 0.00 | 0.00 | 77 | 1019.7 |
| 20260901183906 | 62 | 291 | 0.0 | 0.0 | 0.00 | 0.00 | 0.00 | 76 | 1019.6 |
| 20260901182406 | 63 | 291 | 0.0 | 0.0 | 0.00 | 0.00 | 0.00 | 74 | 1019.5 |
| 20260901181906 | 64 | 291 | 0.0 | 0.0 | 0.00 | 0.00 | 0.00 | 74 | 1019.4 |
| 20260901181406 | 64 | 291 | 0.0 | 1.0 | 0.00 | 0.00 | 0.00 | 72 | 1019.4 |
| 20260901180906 | 65 | 291 | 0.0 | 1.0 | 0.00 | 0.00 | 0.00 | 71 | 1019.5 |
| 20260901180406 | 65 | 286 | 0.0 | 1.0 | 0.00 | 0.00 | 0.00 | 70 | 1019.5 |
| 20260901175906 | 66 | 278 | 1.0 | 3.0 | 0.00 | 0.00 | 0.00 | 70 | 1019.5 |
| 20260901175405 | 66 | 257 | 1.0 | 2.0 | 0.00 | 0.00 | 0.00 | 69 | 1019.6 |
| 20260901174906 | 67 | 262 | 2.0 | 3.0 | 0.00 | 0.00 | 0.00 | 68 | 1019.6 |
| 20260901174406 | 67 | 245 | 1.0 | 2.0 | 0.00 | 0.00 | 0.00 | 67 | 1019.5 |
| 20260901173906 | 68 | 262 | 1.0 | 3.0 | 0.00 | 0.00 | 0.00 | 66 | 1019.5 |
| 20260901173405 | 68 | 261 | 1.0 | 3.0 | 0.00 | 0.00 | 0.00 | 66 | 1019.5 |
| 20260901172406 | 69 | 249 | 2.0 | 6.0 | 0.00 | 0.00 | 0.00 | 65 | 1019.5 |
| 20260901171906 | 69 | 300 | 1.0 | 5.0 | 0.00 | 0.00 | 0.00 | 65 | 1019.5 |
| 20260901171406 | 69 | 276 | 1.0 | 3.0 | 0.00 | 0.00 | 0.00 | 66 | 1019.5 |
| 20260901170406 | 70 | 249 | 1.0 | 3.0 | 0.00 | 0.00 | 0.00 | 61 | 1019.5 |
| 20260901165409 | 71 | 258 | 2.0 | 3.0 | 0.00 | 0.00 | 0.00 | 58 | 1019.5 |
| 20260901164906 | 72 | 272 | 3.0 | 6.0 | 0.00 | 0.00 | 0.00 | 57 | 1019.5 |
| 20260901164405 | 72 | 268 | 5.0 | 10.0 | 0.00 | 0.00 | 0.00 | 56 | 1019.4 |
| 20260901163906 | 72 | 264 | 2.0 | 7.0 | 0.00 | 0.00 | 0.00 | 57 | 1019.4 |
| 20260901163406 | 72 | 272 | 3.0 | 6.0 | 0.00 | 0.00 | 0.00 | 57 | 1019.4 |
| 20260901161906 | 73 | 267 | 2.0 | 6.0 | 0.00 | 0.00 | 0.00 | 56 | 1019.3 |
| 20260901161406 | 73 | 255 | 3.0 | 5.0 | 0.00 | 0.00 | 0.00 | 56 | 1019.3 |
| 20260901160406 | 73 | 290 | 3.0 | 7.0 | 0.00 | 0.00 | 0.00 | 56 | 1019.4 |
| 20260901154906 | 73 | 243 | 5.0 | 10.0 | 0.00 | 0.00 | 0.00 | 56 | 1019.4 |
| 20260901153906 | 73 | 254 | 3.0 | 7.0 | 0.00 | 0.00 | 0.00 | 57 | 1019.5 |
| 20260901153406 | 73 | 245 | 3.0 | 6.0 | 0.00 | 0.00 | 0.00 | 56 | 1019.5 |
| 20260901152906 | 74 | 249 | 4.0 | 7.0 | 0.00 | 0.00 | 0.00 | 56 | 1019.4 |
| 20260901151406 | 74 | 257 | 4.0 | 9.0 | 0.00 | 0.01 | 0.00 | 53 | 1019.5 |
| 20260901150906 | 74 | 222 | 3.0 | 13.0 | 0.00 | 0.01 | 0.00 | 56 | 1019.5 |
| 20260901150406 | 74 | 263 | 2.0 | 13.0 | 0.00 | 0.01 | 0.00 | 56 | 1019.5 |
| 20260901145906 | 74 | 255 | 3.0 | 8.0 | 0.00 | 0.01 | 0.00 | 57 | 1019.6 |
| 20260901144405 | 75 | 279 | 5.0 | 10.0 | 0.00 | 0.01 | 0.00 | 56 | 1019.5 |
| 20260901143906 | 74 | 257 | 1.0 | 3.0 | 0.00 | 0.02 | 0.00 | 58 | 1019.5 |
| 20260901143406 | 74 | 280 | 2.0 | 6.0 | 0.00 | 0.02 | 0.00 | 58 | 1019.6 |
| 20260901142905 | 74 | 264 | 4.0 | 10.0 | 0.00 | 0.02 | 0.00 | 59 | 1019.6 |
| 20260901142407 | 73 | 267 | 3.0 | 8.0 | 0.00 | 0.02 | 0.00 | 57 | 1019.6 |
| 20260901141906 | 73 | 279 | 3.0 | 9.0 | 0.00 | 0.02 | 0.00 | 59 | 1019.6 |
| 20260901141406 | 72 | 240 | 3.0 | 10.0 | 0.00 | 0.02 | 0.00 | 59 | 1019.6 |
| 20260901140907 | 73 | 226 | 5.0 | 8.0 | 0.00 | 0.02 | 0.00 | 59 | 1019.6 |
| 20260901140405 | 73 | 262 | 2.0 | 10.0 | 0.00 | 0.02 | 0.00 | 58 | 1019.6 |
| 20260901135905 | 73 | 259 | 6.0 | 12.0 | 0.00 | 0.02 | 0.00 | 59 | 1019.6 |
| 20260901135406 | 73 | 270 | 5.0 | 8.0 | 0.00 | 0.02 | 0.00 | 61 | 1019.6 |
| 20260901134906 | 72 | 223 | 2.0 | 5.0 | 0.00 | 0.02 | 0.00 | 62 | 1019.6 |
| 20260901134406 | 72 | 248 | 5.0 | 8.0 | 0.00 | 0.02 | 0.00 | 61 | 1019.7 |
| 20260901133906 | 73 | 273 | 3.0 | 9.0 | 0.00 | 0.02 | 0.00 | 61 | 1019.7 |
| 20260901133406 | 73 | 259 | 2.0 | 7.0 | 0.00 | 0.02 | 0.00 | 63 | 1019.7 |
| 20260901132906 | 73 | 231 | 5.0 | 10.0 | 0.00 | 0.02 | 0.00 | 58 | 1019.6 |
| 20260901132406 | 74 | 257 | 5.0 | 10.0 | 0.00 | 0.04 | 0.00 | 58 | 1019.7 |
| 20260901131906 | 74 | 269 | 3.0 | 8.0 | 0.00 | 0.04 | 0.00 | 60 | 1019.7 |
| 20260901130906 | 74 | 263 | 3.0 | 10.0 | 0.00 | 0.05 | 0.00 | 62 | 1019.7 |
| 20260901130406 | 74 | 204 | 3.0 | 7.0 | 0.00 | 0.05 | 0.00 | 61 | 1019.8 |
| 20260901125906 | 73 | 261 | 5.0 | 8.0 | 0.00 | 0.05 | 0.00 | 61 | 1019.9 |
| 20260901125406 | 74 | 262 | 3.0 | 10.0 | 0.00 | 0.05 | 0.00 | 61 | 1019.9 |
| 20260901124906 | 73 | 223 | 3.0 | 7.0 | 0.00 | 0.05 | 0.00 | 63 | 1020.0 |
| 20260901124406 | 73 | 224 | 4.0 | 10.0 | 0.00 | 0.05 | 0.00 | 60 | 1020.0 |
| 20260901122905 | 72 | 283 | 6.0 | 12.0 | 0.00 | 0.05 | 0.00 | 64 | 1019.9 |
| 20260901122406 | 72 | 263 | 5.0 | 12.0 | 0.00 | 0.05 | 0.00 | 64 | 1019.9 |
| 20260901121906 | 72 | 255 | 6.0 | 9.0 | 0.00 | 0.05 | 0.00 | 67 | 1020.0 |
| 20260901121405 | 71 | 266 | 4.0 | 10.0 | 0.00 | 0.05 | 0.00 | 66 | 1020.0 |
| 20260901120406 | 71 | 263 | 5.0 | 12.0 | 0.00 | 0.05 | 0.00 | 69 | 1020.0 |
| 20260901114906 | 71 | 274 | 2.0 | 9.0 | 0.00 | 0.14 | 0.00 | 65 | 1020.0 |
| 20260901114406 | 71 | 279 | 2.0 | 7.0 | 0.00 | 0.15 | 0.00 | 71 | 1020.0 |
| 20260901113906 | 71 | 277 | 2.0 | 7.0 | 0.00 | 0.17 | 0.00 | 73 | 1020.0 |
| 20260901113406 | 70 | 261 | 2.0 | 8.0 | 0.00 | 0.25 | 0.00 | 73 | 1020.0 |
| 20260901112906 | 70 | 252 | 4.0 | 8.0 | 0.00 | 0.30 | 0.00 | 74 | 1020.0 |
| 20260901112406 | 70 | 247 | 5.0 | 10.0 | 0.00 | 0.31 | 0.00 | 75 | 1020.0 |
| 20260901111906 | 69 | 245 | 2.0 | 8.0 | 0.00 | 0.31 | 0.00 | 78 | 1020.0 |
| 20260901111405 | 69 | 262 | 5.0 | 8.0 | 0.00 | 0.31 | 0.00 | 75 | 1020.0 |
| 20260901110907 | 70 | 253 | 3.0 | 12.0 | 0.00 | 0.31 | 0.00 | 75 | 1020.1 |
| 20260901105906 | 70 | 261 | 5.0 | 12.0 | 0.00 | 0.31 | 0.00 | 79 | 1020.1 |
| 20260901105406 | 69 | 264 | 3.0 | 8.0 | 0.00 | 0.31 | 0.00 | 79 | 1020.1 |
| 20260901104406 | 69 | 252 | 4.0 | 8.0 | 0.00 | 0.31 | 0.00 | 81 | 1020.1 |
| 20260901103906 | 68 | 261 | 5.0 | 7.0 | 0.00 | 0.31 | 0.00 | 78 | 1020.2 |
| 20260901103406 | 69 | 250 | 5.0 | 9.0 | 0.00 | 0.31 | 0.00 | 80 | 1020.2 |
| 20260901102906 | 68 | 264 | 5.0 | 9.0 | 0.00 | 0.31 | 0.00 | 81 | 1020.1 |
| 20260901102406 | 68 | 260 | 5.0 | 8.0 | 0.00 | 0.31 | 0.00 | 80 | 1020.1 |
| 20260901101406 | 68 | 279 | 2.0 | 10.0 | 0.00 | 0.31 | 0.00 | 84 | 1020.1 |
| 20260901100905 | 68 | 245 | 4.0 | 8.0 | 0.00 | 0.31 | 0.00 | 86 | 1020.1 |
| 20260901100406 | 67 | 267 | 3.0 | 7.0 | 0.00 | 0.31 | 0.00 | 88 | 1020.2 |
| 20260901095406 | 67 | 274 | 3.0 | 8.0 | 0.00 | 0.31 | 0.00 | 86 | 1020.2 |
| 20260901094908 | 67 | 282 | 2.0 | 7.0 | 0.00 | 0.31 | 0.00 | 89 | 1020.2 |
| 20260901094406 | 66 | 276 | 3.0 | 8.0 | 0.00 | 0.31 | 0.00 | 88 | 1020.2 |
| 20260901093906 | 66 | 205 | 2.0 | 6.0 | 0.00 | 0.31 | 0.00 | 89 | 1020.1 |
| 20260901093405 | 65 | 206 | 2.0 | 5.0 | 0.00 | 0.31 | 0.00 | 89 | 1020.1 |
| 20260901092906 | 65 | 282 | 2.0 | 8.0 | 0.00 | 0.31 | 0.00 | 89 | 1020.1 |
| 20260901092406 | 66 | 237 | 5.0 | 7.0 | 0.00 | 0.31 | 0.00 | 91 | 1020.0 |
| 20260901091905 | 65 | 241 | 3.0 | 6.0 | 0.00 | 0.31 | 0.00 | 92 | 1020.1 |
| 20260901091406 | 64 | 270 | 3.0 | 7.0 | 0.00 | 0.31 | 0.00 | 92 | 1020.1 |
| 20260901090906 | 64 | 268 | 4.0 | 8.0 | 0.00 | 0.31 | 0.00 | 91 | 1020.1 |
| 20260901090406 | 64 | 253 | 5.0 | 7.0 | 0.00 | 0.31 | 0.00 | 92 | 1020.0 |
| 20260901085905 | 64 | 263 | 3.0 | 6.0 | 0.00 | 0.31 | 0.00 | 92 | 1020.0 |
| 20260901085405 | 64 | 281 | 3.0 | 6.0 | 0.00 | 0.31 | 0.00 | 93 | 1020.0 |
| 20260901084405 | 63 | 276 | 4.0 | 9.0 | 0.00 | 0.31 | 0.00 | 93 | 1019.9 |
| 20260901083906 | 63 | 272 | 3.0 | 9.0 | 0.00 | 0.31 | 0.00 | 94 | 1019.9 |
| 20260901083405 | 62 | 268 | 3.0 | 6.0 | 0.00 | 0.31 | 0.00 | 94 | 1019.8 |
| 20260901082906 | 62 | 294 | 3.0 | 7.0 | 0.00 | 0.31 | 0.00 | 94 | 1019.8 |
| 20260901082406 | 62 | 270 | 4.0 | 8.0 | 0.00 | 0.31 | 0.00 | 94 | 1019.8 |
| 20260901081906 | 62 | 229 | 3.0 | 8.0 | 0.00 | 0.31 | 0.00 | 95 | 1019.8 |
| 20260901081406 | 61 | 249 | 3.0 | 10.0 | 0.00 | 0.31 | 0.00 | 95 | 1019.7 |
| 20260901080905 | 62 | 267 | 3.0 | 7.0 | 0.00 | 0.31 | 0.00 | 95 | 1019.7 |
| 20260901080406 | 62 | 249 | 1.0 | 6.0 | 0.00 | 0.31 | 0.00 | 95 | 1019.7 |
| 20260901075907 | 62 | 255 | 3.0 | 7.0 | 0.00 | 0.31 | 0.00 | 95 | 1019.7 |
| 20260901075405 | 61 | 277 | 2.0 | 3.0 | 0.00 | 0.31 | 0.00 | 96 | 1019.6 |
| 20260901074906 | 61 | 304 | 2.0 | 6.0 | 0.00 | 0.31 | 0.00 | 96 | 1019.5 |
| 20260901073905 | 60 | 281 | 3.0 | 6.0 | 0.00 | 0.31 | 0.00 | 96 | 1019.4 |
| 20260901073405 | 60 | 254 | 2.0 | 5.0 | 0.00 | 0.31 | 0.00 | 96 | 1019.3 |
| 20260901072906 | 60 | 260 | 3.0 | 6.0 | 0.00 | 0.31 | 0.00 | 96 | 1019.3 |
| 20260901072405 | 60 | 246 | 0.0 | 6.0 | 0.00 | 0.31 | 0.00 | 96 | 1019.3 |
| 20260901071915 | 60 | 229 | 2.0 | 3.0 | 0.00 | 0.31 | 0.00 | 96 | 1019.3 |
| 20260901070905 | 60 | 309 | 3.0 | 5.0 | 0.00 | 0.31 | 0.00 | 96 | 1019.3 |
| 20260901065905 | 60 | 237 | 3.0 | 3.0 | 0.00 | 0.31 | 0.00 | 96 | 1019.3 |
| 20260901065405 | 59 | 267 | 1.0 | 5.0 | 0.00 | 0.31 | 0.00 | 96 | 1019.3 |
| 20260901064406 | 59 | 272 | 0.0 | 0.0 | 0.00 | 0.31 | 0.00 | 96 | 1019.2 |
| 20260901063906 | 59 | 270 | 0.0 | 0.0 | 0.00 | 0.31 | 0.00 | 96 | 1019.2 |
| 20260901063406 | 59 | 227 | 0.0 | 1.0 | 0.00 | 0.31 | 0.00 | 97 | 1019.2 |
| 20260901062905 | 59 | 185 | 0.0 | 1.0 | 0.00 | 0.31 | 0.00 | 97 | 1019.2 |
| 20260901062406 | 59 | 232 | 0.0 | 0.0 | 0.00 | 0.31 | 0.00 | 97 | 1019.2 |
| 20260901061906 | 59 | 278 | 0.0 | 0.0 | 0.00 | 0.31 | 0.00 | 96 | 1019.1 |
| 20260901061406 | 59 | 266 | 0.0 | 0.0 | 0.00 | 0.31 | 0.00 | 96 | 1019.1 |
| 20260901060905 | 58 | 270 | 0.0 | 0.0 | 0.00 | 0.31 | 0.00 | 97 | 1019.0 |
| 20260901060406 | 58 | 259 | 0.0 | 0.0 | 0.00 | 0.31 | 0.00 | 97 | 1019.0 |
| 20260901055905 | 58 | 242 | 0.0 | 0.0 | 0.00 | 0.31 | 0.00 | 97 | 1018.9 |
| 20260901055405 | 58 | 178 | 0.0 | 0.0 | 0.00 | 0.31 | 0.00 | 97 | 1018.9 |
| 20260901054405 | 58 | 223 | 0.0 | 0.0 | 0.00 | 0.31 | 0.00 | 97 | 1018.7 |
| 20260901053906 | 58 | 253 | 0.0 | 0.0 | 0.00 | 0.31 | 0.00 | 97 | 1018.8 |
| 20260901053406 | 58 | 258 | 0.0 | 0.0 | 0.00 | 0.31 | 0.00 | 97 | 1018.7 |
| 20260901052906 | 58 | 269 | 0.0 | 0.0 | 0.00 | 0.31 | 0.00 | 97 | 1018.7 |
| 20260901052407 | 58 | 277 | 0.0 | 0.0 | 0.00 | 0.31 | 0.00 | 97 | 1018.7 |
| 20260901051906 | 58 | 238 | 0.0 | 0.0 | 0.00 | 0.31 | 0.00 | 97 | 1018.6 |
| 20260901051405 | 58 | 231 | 0.0 | 0.0 | 0.00 | 0.31 | 0.00 | 97 | 1018.6 |
| 20260901050905 | 58 | 231 | 0.0 | 0.0 | 0.00 | 0.31 | 0.00 | 97 | 1018.6 |
| 20260901050405 | 58 | 271 | 0.0 | 0.0 | 0.00 | 0.31 | 0.00 | 97 | 1018.5 |
| 20260901045906 | 57 | 271 | 0.0 | 0.0 | 0.00 | 0.31 | 0.00 | 97 | 1018.5 |
| 20260901045406 | 57 | 288 | 0.0 | 0.0 | 0.00 | 0.31 | 0.00 | 97 | 1018.5 |
| 20260901044905 | 57 | 276 | 0.0 | 0.0 | 0.00 | 0.31 | 0.00 | 97 | 1018.5 |
| 20260901044405 | 58 | 284 | 0.0 | 0.0 | 0.00 | 0.31 | 0.00 | 97 | 1018.5 |
| 20260901043905 | 58 | 305 | 0.0 | 0.0 | 0.00 | 0.31 | 0.00 | 97 | 1018.5 |
| 20260901043406 | 58 | 264 | 0.0 | 0.0 | 0.00 | 0.31 | 0.00 | 97 | 1018.5 |
| 20260901042906 | 58 | 286 | 0.0 | 0.0 | 0.00 | 0.31 | 0.00 | 97 | 1018.4 |
| 20260901042405 | 58 | 290 | 0.0 | 0.0 | 0.00 | 0.31 | 0.00 | 97 | 1018.3 |
| 20260901041905 | 58 | 288 | 0.0 | 0.0 | 0.00 | 0.31 | 0.00 | 97 | 1018.3 |
| 20260901041406 | 58 | 285 | 0.0 | 0.0 | 0.00 | 0.31 | 0.00 | 97 | 1018.3 |
| 20260901040906 | 58 | 277 | 0.0 | 0.0 | 0.00 | 0.31 | 0.00 | 97 | 1018.3 |
| 20260901035905 | 57 | 281 | 0.0 | 0.0 | 0.00 | 0.31 | 0.00 | 97 | 1018.2 |
| 20260901035408 | 57 | 263 | 0.0 | 0.0 | 0.00 | 0.31 | 0.00 | 97 | 1018.2 |
| 20260901034906 | 57 | 223 | 0.0 | 0.0 | 0.00 | 0.31 | 0.00 | 97 | 1018.1 |
| 20260901034406 | 57 | 291 | 0.0 | 0.0 | 0.00 | 0.31 | 0.00 | 97 | 1018.1 |
| 20260901033905 | 57 | 264 | 0.0 | 0.0 | 0.00 | 0.31 | 0.00 | 97 | 1018.1 |
| 20260901033405 | 57 | 237 | 0.0 | 0.0 | 0.00 | 0.31 | 0.00 | 97 | 1018.1 |
| 20260901032906 | 57 | 258 | 0.0 | 0.0 | 0.00 | 0.31 | 0.00 | 97 | 1018.1 |
| 20260901032405 | 57 | 261 | 0.0 | 0.0 | 0.00 | 0.31 | 0.00 | 97 | 1018.1 |
| 20260901031905 | 57 | 296 | 0.0 | 0.0 | 0.00 | 0.31 | 0.00 | 97 | 1018.1 |
| 20260901031405 | 57 | 265 | 0.0 | 2.0 | 0.00 | 0.31 | 0.00 | 97 | 1018.1 |
| 20260901030906 | 57 | 251 | 1.0 | 2.0 | 0.00 | 0.31 | 0.00 | 97 | 1018.1 |
| 20260901030406 | 57 | 291 | 0.0 | 1.0 | 0.00 | 0.31 | 0.00 | 97 | 1018.0 |
| 20260901025905 | 57 | 291 | 1.0 | 3.0 | 0.00 | 0.31 | 0.00 | 97 | 1018.0 |
| 20260901024906 | 57 | 267 | 0.0 | 3.0 | 0.00 | 0.31 | 0.00 | 97 | 1018.1 |
| 20260901024406 | 57 | 250 | 0.0 | 2.0 | 0.00 | 0.31 | 0.00 | 97 | 1018.0 |
| 20260901023906 | 57 | 242 | 0.0 | 0.0 | 0.00 | 0.31 | 0.00 | 97 | 1018.0 |
| 20260901023406 | 57 | 250 | 0.0 | 0.0 | 0.00 | 0.31 | 0.00 | 97 | 1018.0 |
| 20260901022906 | 57 | 258 | 1.0 | 2.0 | 0.00 | 0.31 | 0.00 | 97 | 1018.0 |
| 20260901022405 | 57 | 250 | 1.0 | 2.0 | 0.00 | 0.31 | 0.00 | 97 | 1017.9 |
| 20260901021906 | 57 | 244 | 1.0 | 3.0 | 0.00 | 0.31 | 0.00 | 97 | 1018.0 |
| 20260901020905 | 57 | 242 | 0.0 | 0.0 | 0.00 | 0.31 | 0.00 | 97 | 1018.1 |
| 20260901020406 | 57 | 242 | 0.0 | 0.0 | 0.00 | 0.31 | 0.00 | 97 | 1018.0 |
| 20260901015906 | 57 | 240 | 0.0 | 0.0 | 0.00 | 0.31 | 0.00 | 97 | 1018.0 |
| 20260901014405 | 57 | 237 | 0.0 | 0.0 | 0.00 | 0.31 | 0.00 | 97 | 1017.9 |
| 20260901013905 | 57 | 252 | 1.0 | 2.0 | 0.00 | 0.31 | 0.00 | 97 | 1017.8 |
| 20260901013405 | 57 | 261 | 0.0 | 0.0 | 0.00 | 0.31 | 0.00 | 97 | 1017.9 |
| 20260901012909 | 57 | 269 | 0.0 | 0.0 | 0.00 | 0.31 | 0.00 | 97 | 1017.8 |
| 20260901012406 | 57 | 269 | 0.0 | 0.0 | 0.00 | 0.31 | 0.00 | 97 | 1017.9 |
| 20260901011906 | 57 | 256 | 0.0 | 0.0 | 0.00 | 0.31 | 0.00 | 97 | 1017.9 |
| 20260901010906 | 57 | 265 | 0.0 | 1.0 | 0.00 | 0.31 | 0.00 | 96 | 1017.9 |
| 20260901010405 | 57 | 269 | 0.0 | 2.0 | 0.00 | 0.31 | 0.00 | 96 | 1017.9 |
| 20260901005906 | 57 | 269 | 0.0 | 0.0 | 0.00 | 0.31 | 0.00 | 96 | 1018.0 |
| 20260901005406 | 57 | 269 | 0.0 | 0.0 | 0.00 | 0.31 | 0.00 | 96 | 1017.9 |
| 20260901004906 | 57 | 259 | 0.0 | 1.0 | 0.00 | 0.31 | 0.00 | 96 | 1017.9 |
| 20260901003905 | 57 | 226 | 0.0 | 3.0 | 0.00 | 0.31 | 0.00 | 96 | 1017.9 |
| 20260901003406 | 57 | 228 | 0.0 | 0.0 | 0.00 | 0.31 | 0.00 | 96 | 1018.0 |
| 20260901002905 | 57 | 186 | 0.0 | 2.0 | 0.00 | 0.31 | 0.00 | 96 | 1018.0 |
| 20260901002406 | 57 | 228 | 0.0 | 2.0 | 0.00 | 0.31 | 0.00 | 96 | 1018.0 |
| 20260901001406 | 57 | 182 | 0.0 | 0.0 | 0.00 | 0.31 | 0.00 | 96 | 1017.9 |
| 20260831235906 | 57 | 232 | 0.0 | 0.0 | 0.00 | 0.31 | 0.00 | 96 | 1017.9 |
| 20260831235406 | 57 | 178 | 0.0 | 0.0 | 0.00 | 0.31 | 0.00 | 96 | 1017.8 |
| 20260831233905 | 57 | 245 | 0.0 | 0.0 | 0.00 | 0.31 | 0.00 | 96 | 1017.9 |
| 20260831233407 | 57 | 245 | 0.0 | 0.0 | 0.00 | 0.31 | 0.00 | 96 | 1017.8 |
| 20260831232906 | 57 | 245 | 0.0 | 0.0 | 0.00 | 0.31 | 0.00 | 96 | 1017.8 |
| 20260831232406 | 57 | 245 | 0.0 | 0.0 | 0.00 | 0.31 | 0.00 | 96 | 1017.8 |
| 20260831231906 | 57 | 246 | 0.0 | 0.0 | 0.00 | 0.31 | 0.00 | 96 | 1017.8 |